Powrót do katalogu

METEOSAT 5 AKM

AktywnyMEO
NORAD 21904·ROCKET BODY·🇪🇺 EU

Wystrzelony Mar 2, 1991 z Guiana Space Centre

Loading…

Następne Przeloty (najbliższe 24 godziny)

TLE

ŚwieżeSource: Space-Track

Epoka: Sep 14, 2026, 08:45 UTC

1 21904U 91015E   26257.36467067  .00000024  00000-0  00000-0 0  9999
2 21904  12.1852 337.7896 0159519 239.0933 119.3498  1.00137740117264

Śledź METEOSAT 5 AKM w czasie rzeczywistym z AllMySat

Download on the App Store